AD2TM Weather Reports


time (UTC)temp
C
wind
direction
speed
KPH
gust
KPH
rain 1hr
cm
rain 24hr
cm
rain mn
cm
humidity
%
barometer
mb
20260504100321 1 202 0.0 3.2 0.00 0.00 0.00 87 1006.8
20260504081835 3 98 1.6 3.2 0.00 0.00 0.00 84 1007.0
20260504080330 3 125 1.6 6.4 0.00 0.00 0.00 81 1006.9
20260504070321 3 88 3.2 4.8 0.00 0.00 0.00 83 1006.8
20260504050330 7 135 1.6 3.2 0.00 0.00 0.00 78 1007.1
20260504044820 7 109 1.6 3.2 0.00 0.00 0.00 79 1007.0
20260504043335 7 109 0.0 3.2 0.00 0.00 0.00 79 1007.2
20260504041826 7 120 1.6 3.2 0.00 0.00 0.00 78 1007.2
20260504040321 8 118 1.6 3.2 0.00 0.00 0.00 76 1007.3
20260504034832 8 120 1.6 4.8 0.00 0.00 0.00 73 1007.4
20260504033327 9 105 3.2 6.4 0.00 0.00 0.00 65 1007.5
20260504031839 10 322 1.6 6.4 0.00 0.00 0.00 63 1007.8
20260504030329 9 276 8.0 17.7 0.00 0.00 0.00 64 1007.9
20260504024823 8 304 3.2 4.8 0.00 0.00 0.00 73 1007.9
20260504023335 9 304 3.2 4.8 0.00 0.00 0.00 69 1007.8
20260504021829 10 266 3.2 11.3 0.00 0.00 0.00 62 1007.9
20260504020318 9 257 1.6 8.0 0.00 0.00 0.00 64 1007.9
20260504014837 8 166 0.0 8.0 0.00 0.00 0.00 65 1007.9
20260504013328 9 150 1.6 4.8 0.00 0.00 0.00 66 1007.9
20260504011818 9 240 3.2 11.3 0.00 0.00 0.00 63 1007.8
20260504010333 10 289 1.6 12.9 0.00 0.00 0.00 61 1007.7
20260504004824 10 344 6.4 19.3 0.00 0.00 0.00 60 1007.9
20260504003319 10 286 8.0 17.7 0.00 0.00 0.00 59 1007.7
20260504001830 8 292 1.6 3.2 0.00 0.00 0.00 69 1007.4
20260504000325 8 309 1.6 6.4 0.00 0.00 0.00 69 1007.1
20260503234836 9 276 1.6 6.4 0.00 0.00 0.00 62 1006.8
20260503233327 10 273 1.6 8.0 0.00 0.00 0.00 58 1006.8
20260503231822 10 294 4.8 8.0 0.00 0.00 0.00 53 1006.8
20260503230332 11 281 6.4 19.3 0.00 0.00 0.00 52 1006.7
20260503224828 11 325 8.0 20.9 0.00 0.00 0.00 50 1006.8
20260503223321 11 309 14.5 29.0 0.00 0.00 0.00 52 1006.9
20260503221820 11 290 6.4 32.2 0.00 0.00 0.00 53 1006.9
20260503220330 11 252 6.4 24.1 0.00 0.00 0.00 53 1007.0
20260503214824 11 321 8.0 17.7 0.00 0.00 0.00 54 1007.0
20260503213333 10 299 14.5 30.6 0.00 0.00 0.00 54 1006.9
20260503211827 10 309 6.4 25.7 0.00 0.00 0.00 55 1007.1
20260503210322 10 312 11.3 24.1 0.00 0.00 0.00 54 1006.8
20260503204836 10 240 9.7 32.2 0.00 0.00 0.00 52 1006.8
20260503203331 11 304 4.8 22.5 0.00 0.00 0.00 51 1006.9
20260503201825 11 270 9.7 22.5 0.00 0.00 0.00 50 1006.8
20260503200320 10 263 4.8 17.7 0.00 0.00 0.00 50 1006.9
20260503194831 11 294 14.5 22.5 0.00 0.00 0.00 48 1007.1
20260503193320 10 286 12.9 29.0 0.00 0.00 0.00 45 1007.4
20260503191838 11 315 16.1 32.2 0.00 0.00 0.00 46 1007.4
20260503190329 11 285 11.3 20.9 0.00 0.00 0.00 43 1007.7
20260503184826 11 308 6.4 29.0 0.00 0.00 0.00 46 1007.7
20260503183337 11 304 11.3 27.4 0.00 0.00 0.00 41 1008.0
20260503181832 10 333 11.3 29.0 0.00 0.00 0.00 46 1008.0
20260503180322 10 272 16.1 29.0 0.00 0.00 0.00 44 1008.4
20260503174832 10 287 9.7 22.5 0.00 0.00 0.00 47 1008.4
20260503173326 10 289 12.9 29.0 0.00 0.00 0.00 45 1008.4
20260503171819 8 238 11.3 25.7 0.00 0.00 0.00 46 1008.5
20260503170333 9 338 12.9 29.0 0.00 0.00 0.00 51 1008.6
20260503150333 7 298 6.4 24.1 0.00 0.00 0.00 59 1009.6
20260503130337 5 302 11.3 20.9 0.00 0.00 0.00 65 1009.6
20260503110320 2 290 6.4 12.9 0.00 0.00 0.00 81 1009.2